Hourly Data Report for October 29, 2014

All times are specified in Local Standard Time (LST). Add 1 hour to adjust for Daylight Saving Time where and when it is observed.

KITCHENER/WATERLOO
ONTARIO

43°27'39.000" N
80°22'43.000" W
321.60 m
6144239
71368
YKF

Download Data

Hourly Data (October 2014)
Hourly Data Report for October 29, 2014
Temp Definition
°C
Dew Point Temp Definition
°C
Rel Hum Definition
%
Wind Dir Definition
10's deg

Wind Spd Definition
km/h
Visibility Definition
km
Stn Press Definition
kPa
Hmdx Definition


Wind Chill Definition


Weather Definition


TIME
00:00 Legend Double Dagger 8.7 4.0 72 25 18 16.1 97.24     LegendNANA
01:00 Legend Double Dagger 8.2 3.7 73 25 21 16.1 97.24     LegendNANA
02:00 Legend Double Dagger 7.6 3.3 74 25 17 16.1 97.26     LegendNANA
03:00 Legend Double Dagger 7.5 3.3 75 25 15 16.1 97.28     LegendNANA
04:00 Legend Double Dagger 6.4 2.7 77 22 17 16.1 97.31     LegendNANA
05:00 Legend Double Dagger 6.3 2.8 78 23 18 16.1 97.32     LegendNANA
06:00 Legend Double Dagger 5.3 2.5 82 23 15 16.1 97.31     LegendNANA
07:00 Legend Double Dagger 6.0 2.7 79 23 21 16.1 97.33     LegendNANA
08:00 Legend Double Dagger 6.3 2.9 79 23 17 16.1 97.37     LegendNANA
09:00 Legend Double Dagger 7.4 3.4 76 24 22 16.1 97.38     LegendNANA
10:00 Legend Double Dagger 9.4 3.6 67 26 26 16.1 97.37     LegendNANA
11:00 Legend Double Dagger 10.3 3.4 62 24 32 16.1 97.38     LegendNANA
12:00 Legend Double Dagger 9.4 3.0 64 26 24 16.1 97.36     LegendNANA
13:00 Legend Double Dagger 9.0 3.1 66 25 37 16.1 97.37     LegendNANA
14:00 Legend Double Dagger 8.9 3.1 67 26 26 16.1 97.37     LegendNANA
15:00 Legend Double Dagger 8.2 1.5 63 27 34 16.1 97.41     LegendNANA
16:00 Legend Double Dagger 8.0 2.4 68 29 21 16.1 97.47     LegendNANA
17:00 Legend Double Dagger 6.8 2.7 75 27 15 16.1 97.53     LegendNANA
18:00 Legend Double Dagger 6.1 2.7 79 26 15 16.1 97.57     LegendNANA
19:00 Legend Double Dagger 6.7 2.4 74 26 24 16.1 97.63     LegendNANA
20:00 Legend Double Dagger 5.3 3.3 87 29 17 16.1 97.68     LegendNANA
21:00 Legend Double Dagger 5.3 3.6 89 28 17 16.1 97.73     LegendNANA
22:00 Legend Double Dagger 4.2 2.9 91 28 13 16.1 97.75     LegendNANA
23:00 Legend Double Dagger 4.6 2.9 89 29 13 16.1 97.76     LegendNANA

Notes on Data Quality.

Legend

  • E = Estimated
  • M = Missing
  • NA = Not Available
  • ‡ = Partner data that is not subject to review by the National Climate Archives
Date modified: